Location: Arcones
(41.1182°N, 3.7238°W)
Time: 02:08:30
(UTC+00:00)

Cosmos 372 Rocket - Pass Details

Date: 11 December 2025
Orbit: 734 x 761 km, 74.1° (Epoch: 14 January)

Event Time Altitude Azimuth Distance (km) Brightness Sun altitude
Rises 18:32:37 0° 200° (SSW) 3,191 7.7 -19.3°
Reaches altitude 10° 18:34:58 10° 201° (SSW) 2,266 6.9 -19.7°
Maximum altitude 18:40:07 81° 290° (WNW) 761 4.0 -20.7°
Enters shadow 18:43:24 23° 15° (NNE) 1,564 5.3 -21.3°
